Weather History for Fort Rucker / Ozark, AL

Change the Weather History Date:

Monday, April 1, 2013

  Actual Average (KOZR) Record (KOZR)
Temperature  
Mean Temperature 67 °F -  
Max Temperature 77 °F 72 °F 84 °F (2006)
Min Temperature 57 °F 49 °F 35 °F (2003)
Cooling Degree Days 2    
Growing Degree Days 17 (Base 50)    
Moisture  
Dew Point 58 °F    
Average Humidity 77    
Maximum Humidity 100    
Minimum Humidity 43    
Precipitation  
Precipitation 0.00 in - - ()
Sea Level Pressure  
Sea Level Pressure 29.76 in    
Wind  
Wind Speed 4 mph (WNW)    
Max Wind Speed 12 mph    
Max Gust Speed -    
Visibility 9 miles    
Events      
Averages and records for this station are not official NWS values.
T = Trace of Precipitation, MM = Missing Value Source: NWS Daily Summary

Daily Weather History Graph

Daily Weather History Graph

Search for Another Location

Airport:

Trip Planner

Search our weather history database for the weather conditions in past years. The results will help you decide how hot, cold, wet, or windy it might be!

Date:

Astronomy

Apr. 01, 2013 Rise Set
Actual Time 6:30 AM CDT 7:02 PM CDT
Civil Twilight 6:06 AM CDT 7:26 PM CDT
Nautical Twilight 5:37 AM CDT 7:55 PM CDT
Astronomical Twilight 5:08 AM CDT 8:24 PM CDT
Moon No Moon Rise 10:33 AM CDT (4/1)
Length of Visible Light 13h 20m
Length of Day
12h 31m
Waning Gibbous, 67% of the Moon is Illuminated
Apr 1
Waning Gibbous
Apr 2
Last Quarter
Apr 10
New
Apr 18
First Quarter
Apr 25
Full

Hourly Weather History & Observations

Time (CDT) Temp. Dew Point Humidity Pressure Visibility Wind Dir Wind Speed Gust Speed Precip Events Conditions
12:02 AM 64.4 °F 64.4 °F 100% 29.91 in 9.0 mi Variable 3.5 mph - N/A   Overcast
12:53 AM 64.9 °F 64.0 °F 97% 29.58 in 8.0 mi South 3.5 mph - N/A   Overcast
1:53 AM 64.9 °F 64.0 °F 97% 29.58 in 8.0 mi SW 3.5 mph - N/A   Overcast
2:22 AM - - N/A% - - North - - N/A   Unknown
2:53 AM 64.0 °F 64.0 °F 100% 29.59 in 6.0 mi Variable 3.5 mph - N/A   Overcast
3:34 AM 64.4 °F 62.6 °F 94% 29.92 in 5.0 mi SSW 3.5 mph - N/A   Mostly Cloudy
3:42 AM 64.4 °F 62.6 °F 94% 29.92 in 6.0 mi SSW 4.6 mph - N/A   Scattered Clouds
3:53 AM 64.0 °F 63.0 °F 96% 29.59 in 6.0 mi SW 3.5 mph - N/A   Partly Cloudy
4:53 AM 64.0 °F 63.0 °F 96% 29.60 in 5.0 mi Calm Calm - N/A   Mostly Cloudy
5:23 AM 62.6 °F 62.6 °F 100% 29.93 in 5.0 mi Calm Calm - N/A   Scattered Clouds
5:53 AM 63.0 °F 61.0 °F 93% 29.62 in 9.0 mi West 4.6 mph - N/A   Clear
6:53 AM 61.0 °F 60.1 °F 97% 29.63 in 6.0 mi WNW 3.5 mph - N/A   Clear
7:53 AM 63.0 °F 59.0 °F 87% 29.66 in 10.0 mi WNW 6.9 mph - N/A   Scattered Clouds
8:53 AM 64.9 °F 57.9 °F 78% 29.68 in 10.0 mi NW 9.2 mph - N/A   Partly Cloudy
9:20 AM 66.2 °F 57.2 °F 73% 30.02 in 10.0 mi Variable 6.9 mph - N/A   Mostly Cloudy
9:32 AM 64.4 °F 57.2 °F 77% 30.02 in 10.0 mi WNW 8.1 mph - N/A   Mostly Cloudy
9:53 AM 66.9 °F 57.9 °F 73% 29.70 in 10.0 mi Variable 5.8 mph - N/A   Mostly Cloudy
10:48 AM 64.4 °F 57.2 °F 77% 30.04 in 10.0 mi NW 5.8 mph - N/A   Overcast
10:53 AM 64.9 °F 57.9 °F 78% 29.70 in 10.0 mi NNW 6.9 mph - N/A   Overcast
11:46 AM 64.4 °F 57.2 °F 77% 30.04 in 10.0 mi Variable 5.8 mph - N/A   Overcast
11:53 AM 66.9 °F 57.9 °F 73% 29.70 in 10.0 mi NW 3.5 mph - N/A   Overcast
12:53 PM 68.0 °F 57.0 °F 68% 29.70 in 10.0 mi NW 8.1 mph - N/A   Overcast
1:53 PM 70.0 °F 57.9 °F 65% 29.69 in 10.0 mi NNW 6.9 mph - N/A   Overcast
2:31 PM 71.6 °F 57.2 °F 60% 30.00 in 10.0 mi Calm Calm - N/A   Partly Cloudy
2:51 PM 73.4 °F 57.2 °F 57% 29.99 in 10.0 mi Variable 4.6 mph - N/A   Mostly Cloudy
2:53 PM 73.9 °F 57.0 °F 55% 29.66 in 10.0 mi Variable 6.9 mph - N/A   Mostly Cloudy
3:00 PM 73.4 °F 57.2 °F 57% 29.99 in 10.0 mi Variable 5.8 mph - N/A   Scattered Clouds
3:53 PM 73.9 °F 55.0 °F 52% 29.65 in 10.0 mi Variable 3.5 mph - N/A   Partly Cloudy
4:53 PM 77.0 °F 53.1 °F 43% 29.63 in 10.0 mi North 11.5 mph - N/A   Scattered Clouds
5:53 PM 75.9 °F 52.0 °F 43% 29.64 in 10.0 mi Variable 6.9 mph - N/A   Scattered Clouds
6:53 PM 72.0 °F 52.0 °F 49% 29.65 in 10.0 mi WNW 3.5 mph - N/A   Clear
7:53 PM 66.0 °F 53.1 °F 63% 29.67 in 10.0 mi WNW 4.6 mph - N/A   Clear
8:53 PM 61.0 °F 53.1 °F 75% 29.68 in 10.0 mi NW 3.5 mph - N/A   Clear
9:53 PM 57.0 °F 53.1 °F 87% 29.69 in 10.0 mi WNW 4.6 mph - N/A   Clear
10:53 PM 59.0 °F 53.1 °F 81% 29.71 in 10.0 mi WNW 4.6 mph - N/A   Clear
11:53 PM 57.0 °F 53.1 °F 87% 29.72 in 10.0 mi Calm Calm - N/A   Clear